User: anonymous   Login
Location: Unspecified
(0.0000°N, 0.0000°E)
Time: 07:42:00
(UTC+00:00)
Language:

NODES 2 - Orbit

View from above orbital plane
View from above orbital plane
View from above satellite
View from above satellite

Ground track
Ground track

The orbit data is extracted from the following two-line orbital elements,

1 41478U 98067HY  17266.27255257  .13534231  12598-4  22876-3 0  9990
2 41478  51.6086 206.1528 0005980 262.1280  97.9071 16.47641774 77698
Epoch (UTC): 23 September 2017 06:32:28
Eccentricity: 0.0005980
inclination: 51.6086°
perigee height: 141 km
apogee height: 149 km
right ascension of ascending node: 206.1528°
argument of perigee: 262.1280°
revolutions per day: 16.47641774
mean anomaly at epoch: 97.9071°
orbit number at epoch: 7769

The dashed part of the orbit path shows where the satellite is in the earth's shadow,  

DLR